Flag for Turkey Weather past 2 weeks in Mersin, Turkey

Now
57 °F

Fog.


Feels Like: 56 °F
Forecast: 44 / 61 °F
Wind: 6 mph from Northeast

Location: Adana / Sakirpasa

Current Time: Mar 3, 2015 at 9:18:59 PM

Latest Report: Mar 3, 2015 at 8:50 PM


Visibility: 2 mi

Pressure: 30.01 "Hg

Humidity: 77%

Dew point: 50 °F

Location of MersinLocation

Historic Weather in Mersin — Graph

°F

Mersin temperature yesterday

Maximum temperature yesterday: 68 °F (at 2:20 PM)
Minimum temperature yesterday: 50 °F (at 5:50 AM)
Average temperature yesterday: 58 °F

Past Weeks' High & Low Weather Summary

 TemperatureHumidityPressure
High73 °F (Feb 27, 1:50 PM)94% (Mar 1, 3:20 AM)30.27 "Hg (Mar 1, 3:20 AM)
Low37 °F (Feb 22, 3:20 AM)17% (Feb 21, 1:20 PM)29.59 "Hg (Feb 20, 11:50 AM)
Average53 °F62%29.98 "Hg
* Reported Feb 16 7:20 PM — Mar 3 7:50 PM, Mersin, Weather by CustomWeather, © 2015

Note: Actual official high and low records may vary slightly from our data, if they occured in-between our weather recording intervals... More about our weather records

Advertising

Mersin weather history for previous 24 hours

 ConditionsComfort  
Time TempWeatherWind HumidityBarometerVisibility
7:50 PM
Tue, Mar 3
57 °FFog.3 mph77%29.98 "Hg2 mi
7:20 PM57 °FFog.3 mph77%29.98 "Hg2 mi
6:50 PM57 °FFog.2 mph82%29.98 "Hg2 mi
6:20 PM57 °FPartly cloudy.No wind77%29.98 "HgN/A
5:50 PM57 °FPartly cloudy.5 mph77%29.98 "HgN/A
5:20 PM59 °FBroken clouds.7 mph77%29.98 "HgN/A
4:50 PM59 °FBroken clouds.12 mph72%29.95 "HgN/A
4:20 PM61 °FBroken clouds.9 mph59%29.95 "HgN/A
3:50 PM61 °FBroken clouds.13 mph59%29.95 "HgN/A
3:20 PM63 °FBroken clouds.14 mph56%29.95 "HgN/A
2:50 PM63 °FBroken clouds.17 mph59%29.95 "HgN/A
2:20 PM66 °FBroken clouds.9 mph46%29.95 "HgN/A
1:50 PM64 °FBroken clouds.7 mph49%29.95 "HgN/A
1:20 PM66 °FPartly sunny.7 mph46%29.98 "HgN/A
12:50 PM66 °FScattered clouds.7 mph46%29.98 "HgN/A
12:20 PM64 °FScattered clouds.6 mph52%29.98 "HgN/A
11:50 AM64 °FScattered clouds.5 mph52%30.01 "HgN/A
11:20 AM63 °FPassing clouds.2 mph56%30.01 "HgN/A
10:50 AM63 °FPassing clouds.6 mph56%30.01 "HgN/A
10:20 AM63 °FPassing clouds.5 mph52%30.01 "HgN/A
9:50 AM61 °FPassing clouds.3 mph55%30.01 "HgN/A
9:20 AM61 °FPassing clouds.5 mph55%30.04 "HgN/A
8:50 AM59 °FPassing clouds.6 mph63%30.04 "HgN/A
8:20 AM57 °FPartly sunny.7 mph67%30.04 "HgN/A
7:50 AM55 °FPartly sunny.8 mph77%30.01 "HgN/A
7:20 AM55 °FFog.5 mph72%30.01 "Hg3 mi
6:50 AM54 °FFog.8 mph77%30.01 "Hg3 mi
6:20 AM52 °FFog.7 mph82%30.01 "Hg3 mi
5:50 AM52 °FFog.7 mph82%30.01 "Hg3 mi
5:20 AM54 °FFog.6 mph82%30.01 "Hg3 mi
4:50 AM52 °FFog.3 mph88%30.01 "Hg3 mi
3:50 AM54 °FFog.7 mph82%29.98 "Hg3 mi
3:20 AM52 °FFog.6 mph88%29.98 "Hg3 mi
2:50 AM52 °FFog.10 mph88%29.98 "Hg3 mi
2:20 AM52 °FFog.10 mph88%29.98 "Hg3 mi
1:50 AM54 °FFog.7 mph82%29.98 "Hg3 mi
1:20 AM52 °FFog.6 mph88%29.98 "Hg3 mi
12:50 AM52 °FFog.5 mph88%29.98 "Hg3 mi
12:20 AM54 °FFog.6 mph88%29.98 "Hg3 mi
11:50 PM
Mon, Mar 2
55 °FFog.8 mph82%29.98 "Hg3 mi
11:20 PM55 °FThunderstorms. Fog.12 mph82%29.98 "Hg3 mi
10:50 PM57 °FThunderstorms. Fog.12 mph77%29.98 "Hg3 mi
10:20 PM57 °FFog.8 mph72%29.98 "Hg3 mi
9:50 PM57 °FFog.10 mph77%29.98 "Hg3 mi
9:20 PM57 °FFog.8 mph82%29.98 "Hg3 mi
Weather by CustomWeather, © 2015

See weather overviewHow to use our weather pages